Dewpoint
54 54 55 56 56 56 56 57 57 57 57 58 59 60 60 61 59 51 45 45 52 73 71 41 49 48 44 44 42 42 38 34 35 39 43 45 50 54 56 58 59 61 63 65 65
54 54 54 54 55 56 56 57 57 57 57 58 59 59 60 60 48 36 58 69 70 72 39 40 34 28 27 31 47 42 34 34 37 41 43 45 47 53 58 59 60 61 64 65 63
54 54 54 53 54 55 56 56 56 57 57 58 58 59 60 58 42 33 70 68 71 66 37 36 31 26 26 29 49 38 32 36 39 40 42 45 47 49 55 58 61 61 63 64 63
54 54 54 53 54 54 55 55 56 56 57 57 58 59 60 45 28 31 71 70 70 39 34 34 32 28 27 31 39 32 33 34 37 40 41 44 45 51 55 58 61 62 64 63 63
54 54 54 54 54 55 55 55 55 56 56 57 58 59 46 36 27 31 72 67 42 30 32 36 31 28 27 31 37 32 29 34 37 39 42 45 48 52 55 59 61 62 62 62 62
54 55 55 54 54 55 54 55 55 55 56 57 59 59 44 28 23 28 30 32 32 29 31 34 31 27 27 41 41 37 32 33 36 40 41 45 48 54 56 59 61 62 61 61 61
54 54 54 54 54 54 54 54 54 55 56 58 60 51 35 30 24 20 23 23 27 28 31 33 32 29 26 32 42 42 36 38 39 39 41 43 44 52 57 59 61 61 61 61 61
54 54 54 54 54 54 53 53 54 55 56 59 59 47 33 27 27 24 20 19 24 27 31 32 30 30 27 45 43 47 47 41 37 39 39 38 43 51 56 57 59 60 61 61 61
54 54 54 54 53 53 52 52 54 55 58 60 49 40 27 39 28 21 21 16 21 23 27 30 26 27 35 42 45 52 48 45 41 37 41 38 41 49 52 54 57 59 60 61 61
54 54 54 53 53 52 51 53 53 54 52 46 39 33 35 25 21 20 17 17 18 23 26 29 28 30 25 30 38 43 43 42 42 35 39 34 38 45 49 50 54 56 58 58 59
54 54 53 53 52 51 47 39 34 41 34 28 23 23 17 26 18 15 14 15 17 23 26 29 28 27 25 34 43 40 37 38 37 32 36 43 40 43 45 44 48 52 56 56 57
54 53 53 53 51 50 46 37 29 26 25 29 32 26 24 21 16 14 11 13 16 22 25 27 27 27 26 29 38 38 37 33 33 30 35 36 41 42 42 42 44 47 52 54 55
53 53 53 52 50 45 35 26 30 25 22 19 20 28 25 23 18 18 14 12 15 22 24 27 27 27 25 27 31 30 27 27 26 26 28 30 37 42 42 42 42 43 47 49 52
53 53 52 51 42 35 32 32 28 25 21 14 11 13 18 22 20 20 15 13 15 21 24 27 27 25 25 26 29 26 29 27 23 21 22 27 27 40 42 40 42 43 44 45 50
53 53 52 51 39 34 33 30 27 27 17 10 7 14 13 18 18 18 16 12 14 20 24 27 26 25 25 24 28 25 26 26 23 22 24 26 31 33 40 40 39 40 44 45 48
52 52 52 39 35 34 29 27 27 22 18 11 7 11 12 14 16 16 17 13 14 19 23 26 26 24 24 26 26 25 26 24 22 21 19 22 29 34 34 39 39 40 40 45 47
52 51 49 40 33 31 31 30 19 17 20 13 12 12 11 11 13 16 16 16 12 19 23 24 24 24 24 25 25 24 25 25 24 19 19 23 29 37 35 36 38 39 41 42 48
51 51 43 36 34 31 30 27 21 15 18 10 12 17 14 11 11 14 15 15 12 16 19 21 20 23 24 25 25 24 24 24 26 19 18 29 27 31 32 32 36 40 40 42 42
50 37 32 31 31 31 27 22 18 17 17 16 8 15 17 10 11 12 16 14 14 15 22 23 21 22 22 24 24 25 26 24 22 23 19 26 28 33 31 31 32 36 40 42 44
40 34 30 28 27 27 23 23 17 12 16 17 16 12 17 15 12 13 14 16 14 13 21 25 23 21 21 22 22 23 25 22 23 28 29 25 30 27 36 31 30 32 40 44 46
38 29 26 25 24 25 22 18 17 18 15 17 19 16 13 16 13 13 13 14 15 14 21 22 22 23 22 22 20 19 22 24 20 22 24 29 29 35 39 36 34 33 34 45 45
32 26 27 32 22 21 22 20 22 13 13 15 17 19 16 15 17 14 12 15 14 15 18 22 20 22 20 21 19 19 22 22 24 33 26 28 24 24 35 31 35 37 44 40 45
29 26 26 31 25 20 22 18 16 14 14 12 14 20 22 21 23 17 13 11 15 14 22 24 23 22 21 18 20 18 17 20 22 25 32 25 26 29 32 35 39 38 38 48 47
31 28 36 28 25 20 19 16 13 14 13 12 13 19 23 23 24 23 15 11 14 12 43 31 19 27 17 24 19 20 13 17 19 25 27 22 34 30 31 34 39 39 47 48 56
35 38 40 36 33 31 19 21 14 11 12 12 14 16 21 24 23 22 19 15 13 31 33 22 28 25 19 17 15 13 11 14 23 24 25 26 29 33 42 39 41 43 51 52 56
41 39 35 28 30 29 29 27 25 15 10 11 13 15 20 25 25 23 23 24 25 20 21 16 31 30 19 14 14 11 11 13 17 21 24 23 27 34 40 38 38 46 51 54 57
43 40 35 31 27 25 23 26 25 25 11 9 10 17 20 24 28 27 22 25 23 27 28 26 25 33 27 17 14 16 14 15 19 21 21 25 32 33 35 38 42 50 51 55 56
Lifted_Index
14 14 14 13 13 13 12 11 11 10 10 9 9 9 8 7 5 4 3 4 4 3 2 2 1 1 1 1 -0 -1 -0 0 1 1 1 1 1 -0 -0 -1 -1 -1 -1 -1 -0
14 14 14 14 14 13 13 12 11 11 10 10 9 9 9 7 5 4 4 4 4 3 3 2 2 3 2 1 -0 -0 0 1 1 1 1 1 1 0 -1 -1 -1 -1 -1 -1 -0
15 15 15 15 14 14 14 13 12 12 11 10 10 10 9 7 5 4 4 4 4 4 3 3 3 3 2 0 -0 0 1 2 2 2 2 1 1 0 -1 -1 -1 -0 -1 -1 -0
15 15 15 15 15 15 14 14 13 13 12 11 11 10 9 8 5 4 4 4 4 4 3 3 3 2 1 -0 -0 1 2 3 3 2 2 2 1 0 -1 -1 -1 -0 -0 -0 -0
15 15 15 15 15 15 15 14 14 13 12 12 11 11 9 7 6 5 4 4 4 4 2 3 3 2 0 -1 -0 1 3 3 3 3 2 2 1 0 -1 -1 -0 -0 -0 -0 -0
16 16 16 16 15 15 15 15 14 14 13 12 11 11 9 8 7 6 6 5 5 4 3 3 3 2 0 -1 -1 0 2 3 3 3 3 2 1 0 -0 -1 -1 -0 -0 -0 -0
16 16 16 16 16 16 15 15 14 14 13 12 11 10 9 8 8 7 7 6 6 4 3 3 3 2 1 -0 -1 -1 0 1 2 2 2 2 1 0 -1 -1 -1 -1 -0 -0 -0
16 16 16 16 16 16 16 15 14 14 13 11 10 10 9 9 8 8 7 7 6 5 4 4 3 3 1 -0 -1 -1 -1 -0 0 1 1 2 1 0 -0 -1 -1 -1 -1 -0 -0
16 16 16 17 17 17 16 15 14 13 12 11 10 10 8 8 9 8 8 7 6 5 4 4 4 3 1 -0 -1 -0 -0 -0 -1 -1 0 1 1 1 0 -0 -1 -1 -1 -0 -0
16 17 17 17 17 17 16 15 13 12 11 10 10 9 8 8 8 8 7 7 6 5 4 3 3 2 1 -0 -0 -0 -0 -0 -0 -0 -0 0 1 1 1 1 0 -0 -0 -0 -0
17 17 17 17 17 17 16 13 12 11 10 10 9 9 8 8 8 8 7 6 6 4 3 3 2 2 0 -0 -0 -0 -0 -0 0 0 0 -0 0 1 1 2 1 1 0 -0 -0
17 17 17 18 18 17 15 12 11 11 10 9 9 9 9 8 8 7 7 6 5 4 3 3 2 1 -0 -0 -0 -0 -0 -0 0 0 0 -0 -0 0 1 2 2 2 1 0 0
18 18 18 18 17 15 13 12 12 12 10 9 9 9 9 8 8 7 7 6 5 4 3 2 2 1 -0 -1 -0 -0 -1 -1 -0 0 -0 -1 -1 -0 1 2 2 2 2 1 1
18 18 18 18 17 15 13 13 13 11 9 7 8 8 9 9 8 8 7 6 5 4 3 2 1 -0 -1 -1 -1 -1 -1 -1 -1 -1 -1 -1 -1 -0 0 1 2 2 2 2 2
18 18 19 19 17 15 14 13 13 10 6 5 6 7 8 8 8 7 7 6 5 4 3 2 0 -1 -1 -1 -1 -1 -1 -1 -1 -1 -1 -1 -1 -0 0 1 2 2 2 2 2
17 18 18 18 17 16 15 14 11 8 5 5 6 7 7 8 7 7 6 6 5 4 3 2 0 -1 -1 -1 -1 -1 -1 -1 -1 -1 -1 -1 -1 -1 -0 1 2 2 2 2 2
17 17 18 18 17 16 15 13 10 7 6 5 5 6 7 7 7 6 6 6 5 4 3 2 0 -1 -1 -1 -1 -1 -1 -1 -1 -1 -1 -1 -1 -1 -0 0 1 2 2 2 2
16 16 17 16 16 15 14 11 9 8 7 5 4 5 6 6 6 6 6 6 5 4 3 2 1 -0 -1 -1 -1 -1 -1 -1 -1 -1 -1 -1 -1 -1 -0 -0 1 1 2 2 2
13 14 15 15 14 14 13 11 10 9 8 4 2 3 4 5 5 5 5 5 5 4 3 2 1 -0 -1 -1 -1 -1 -1 -1 -1 -1 -1 -1 -1 -1 -1 -0 0 0 1 1 1
9 10 12 12 12 13 13 12 12 11 8 4 2 1 2 3 4 4 4 5 5 4 3 2 0 -0 -0 -0 -0 -0 -1 -1 -1 -1 -1 -1 -1 -1 -0 0 0 -0 -0 0 0
5 5 7 9 11 12 13 14 14 12 8 5 3 1 0 1 2 3 4 4 4 4 3 1 0 -0 -0 0 0 -0 -0 -1 -1 -1 -1 -1 -1 -1 -0 1 0 -0 -0 -0 -0
2 2 3 5 8 11 13 14 14 12 9 7 5 2 1 0 1 1 2 3 3 3 3 2 0 -0 -0 -0 0 0 -0 -1 -1 -1 -1 -1 -1 -1 -0 0 0 0 0 -0 -0
2 1 1 2 6 9 11 12 13 11 9 8 7 4 2 1 0 0 1 1 2 3 3 2 1 -0 -1 -1 -0 0 -0 -1 -1 -1 -1 -1 -1 -1 -1 -0 0 1 1 0 -1
1 1 1 1 4 6 8 10 10 10 9 8 7 5 3 2 1 -0 -0 -0 1 1 2 2 1 0 -0 -1 -0 -0 -0 -1 -1 -1 -1 -1 -1 -1 -1 -0 0 1 0 -0 -1
1 1 1 1 2 3 4 6 7 8 8 8 7 6 4 3 1 0 -0 -1 -0 -0 1 1 1 0 -0 -0 -1 -0 -0 -1 -1 -1 -1 -1 -1 -0 -0 -0 -0 0 -0 -1 -2
0 0 1 1 1 1 1 3 4 6 6 7 7 6 4 3 2 0 -0 -1 -1 -1 -0 0 1 1 0 -0 -0 -1 -1 -1 -1 -1 -1 -1 -1 -0 -0 -0 -0 -1 -2 -2 -2
0 0 1 1 1 0 -0 1 2 4 5 5 6 5 4 3 1 1 0 -0 -1 -1 -1 -0 0 0 0 0 -0 -1 -1 -1 -1 -1 -1 -1 -1 -1 -1 -0 -1 -2 -2 -3 -3